Location: Le Petit-Vavre
(46.5081°N, 1.5239°E)
Time: 13:43:32
(UTC+00:00)

Meteor 2-4 Rocket - Pass Details

Date: 03 March 2021
Orbit: 799 x 908 km, 81.2° (Epoch: 17 April)

Event Time Altitude Azimuth Distance (km) Brightness Sun altitude
Rises 18:45:32 0° 351° (N) 3,487 7.1 -11.6°
Reaches altitude 10° 18:48:00 10° 355° (N) 2,559 6.3 -12.0°
Maximum altitude 18:53:48 62° 76° (ENE) 1,006 3.8 -13.0°
Drops below altitude 10° 18:59:39 10° 157° (SSE) 2,583 6.0 -14.0°
Sets 19:02:09 0° 161° (SSE) 3,523 6.7 -14.4°
